TimeEDT,TemperatureF,Dew PointF,Humidity,Sea Level PressureIn,VisibilityMPH,Wind Direction,Wind SpeedMPH,Gust SpeedMPH,PrecipitationIn,Events,Conditions,WindDirDegrees,DateUTC
12:10 AM,62.6,60.8,94,30.21,6.0,East,12.7,-,N/A,,Overcast,90,2013-04-16 04:10:00
12:51 AM,63.0,59.0,87,30.21,7.0,East,9.2,-,N/A,,Overcast,90,2013-04-16 04:51:00
1:51 AM,63.0,60.1,90,30.20,10.0,East,5.8,-,N/A,,Overcast,80,2013-04-16 05:51:00
2:43 AM,62.6,59.0,88,30.19,10.0,East,10.4,-,N/A,,Mostly Cloudy,90,2013-04-16 06:43:00
2:51 AM,62.1,59.0,90,30.19,10.0,East,9.2,-,N/A,,Mostly Cloudy,90,2013-04-16 06:51:00
3:01 AM,62.6,59.0,88,30.19,10.0,East,9.2,-,N/A,,Scattered Clouds,90,2013-04-16 07:01:00
3:51 AM,62.1,57.9,86,30.20,10.0,ENE,4.6,-,N/A,,Overcast,70,2013-04-16 07:51:00
4:08 AM,62.6,57.2,82,30.20,10.0,East,6.9,-,N/A,,Overcast,80,2013-04-16 08:08:00
4:22 AM,62.6,59.0,88,30.21,10.0,East,8.1,-,N/A,,Overcast,90,2013-04-16 08:22:00
4:51 AM,63.0,59.0,87,30.21,9.0,East,5.8,-,N/A,,Overcast,90,2013-04-16 08:51:00
5:08 AM,62.6,59.0,88,30.21,10.0,East,6.9,-,0.00,,Overcast,90,2013-04-16 09:08:00
5:46 AM,62.6,59.0,88,30.22,10.0,East,4.6,-,0.00,,Overcast,80,2013-04-16 09:46:00
5:51 AM,62.1,59.0,90,30.22,10.0,ENE,4.6,-,0.00,,Overcast,70,2013-04-16 09:51:00
6:51 AM,62.1,57.9,86,30.24,9.0,ENE,5.8,-,N/A,,Overcast,70,2013-04-16 10:51:00
7:51 AM,63.0,57.9,84,30.26,10.0,East,9.2,-,N/A,,Overcast,80,2013-04-16 11:51:00
8:51 AM,68.0,59.0,73,30.27,10.0,East,10.4,-,N/A,,Overcast,80,2013-04-16 12:51:00
9:51 AM,71.1,59.0,66,30.27,9.0,East,9.2,-,N/A,,Mostly Cloudy,90,2013-04-16 13:51:00
10:51 AM,72.0,59.0,64,30.28,10.0,East,6.9,-,N/A,,Overcast,80,2013-04-16 14:51:00
11:18 AM,69.8,59.0,68,30.29,10.0,East,5.8,-,N/A,,Overcast,80,2013-04-16 15:18:00
11:51 AM,71.1,59.0,66,30.30,10.0,ESE,6.9,-,N/A,,Overcast,110,2013-04-16 15:51:00
12:51 PM,71.1,57.9,63,30.29,7.0,ESE,9.2,-,N/A,,Overcast,110,2013-04-16 16:51:00
1:47 PM,73.4,59.0,61,30.28,9.0,ESE,8.1,-,N/A,,Overcast,120,2013-04-16 17:47:00
1:51 PM,73.0,57.9,59,30.28,8.0,ESE,9.2,-,N/A,,Overcast,120,2013-04-16 17:51:00
2:51 PM,68.0,57.0,68,30.28,10.0,SSE,4.6,-,N/A,,Overcast,160,2013-04-16 18:51:00
3:51 PM,70.0,57.0,63,30.26,8.0,ESE,9.2,-,N/A,,Partly Cloudy,120,2013-04-16 19:51:00
4:51 PM,71.6,57.2,60,30.25,7.0,ESE,9.2,-,N/A,,Clear,110,2013-04-16 20:51:00
5:51 PM,70.0,57.0,63,30.26,7.0,East,9.2,-,N/A,,Clear,100,2013-04-16 21:51:00
6:51 PM,64.9,55.9,73,30.25,5.0,East,10.4,-,N/A,,Haze,100,2013-04-16 22:51:00
7:51 PM,62.1,55.0,78,30.25,4.0,East,10.4,-,N/A,,Haze,100,2013-04-16 23:51:00
8:51 PM,61.0,55.0,81,30.26,5.0,East,8.1,-,N/A,,Haze,100,2013-04-17 00:51:00
9:51 PM,60.1,55.0,83,30.26,3.0,East,6.9,-,N/A,,Haze,100,2013-04-17 01:51:00
10:51 PM,60.1,55.0,83,30.26,5.0,East,6.9,-,N/A,,Haze,100,2013-04-17 02:51:00
11:40 PM,59.0,55.4,88,30.25,5.0,East,5.8,-,N/A,,Mostly Cloudy,100,2013-04-17 03:40:00
11:51 PM,59.0,55.0,87,30.25,6.0,East,5.8,-,N/A,,Mostly Cloudy,100,2013-04-17 03:51:00